Location: Drocourt
(49.0571°N, 1.7669°E)
Time: 16:07:34
(UTC+00:00)

Vanguard 1 Rocket - Pass Details

Date: 20 April 2024
Orbit: 651 x 4220 km, 34.3° (Epoch: 19 May)

Event Time Altitude Azimuth Distance (km) Brightness Sun altitude
Rises 23:41:04 0° 260° (W) 4,427 10.9 -28.9°
Reaches altitude 10° 23:44:34 10° 244° (WSW) 3,901 10.4 -29.0°
Enters shadow 23:44:55 11° 242° (WSW) 3,868 10.3 -29.0°
